Date String (YYYY-MM-DD hh:mm:ss) UTC,Instrument flags,absolute air pressure of the measurement (hPa),sample flow rate (lpm),inlet stack bypass flow (lpm),air temperature of the measurement (°C),ambient temperature measured by the external sensor (°C),aerosol sample conditioner tube jacket temperature (°C),OPC LED temperature (°C),internal box temperature (°C),relative humidity of the measurement (%),span deviation,mass concentration of particles derived from Lorenz-Mie calculation of OPC scattering (μg/m³),mass concentration of particles derived from Lorenz-Mie calculation of OPC scattering (μg/m³),mass concentration of particles derived from Lorenz-Mie calculation of OPC scattering (μg/m³)
DateTimeUTC,F1_M11,P_M11,Q1_M11,Q2_M11,T1_M11,T2_M11,T3_M11,T4_M11,T5_M11,U1_M11,ZSPAN_M11,X0_M11,X2_M11,X1_M11
2024-06-03 13:00:00,SystemResetWarning,0824.8,5.00,000.00,030.9,030.1,000.0,039.3,032.6,016.0,0000.0,0023.41,0005.64,0003.85
2024-06-03 13:01:00,SystemResetWarning,0824.9,5.00,000.00,030.9,030.1,000.0,039.3,032.6,015.7,0000.0,0022.91,0005.59,0003.84
2024-06-03 13:02:00,SystemResetWarning,0824.8,5.00,000.00,030.9,030.1,000.0,039.3,032.6,015.5,0000.0,0021.12,0005.59,0003.82
2024-06-03 13:03:00,SystemResetWarning,0824.8,5.00,000.00,030.9,030.1,000.0,039.3,032.6,015.7,0000.0,0018.98,0005.53,0003.81
2024-06-03 13:04:00,SystemResetWarning,0824.8,5.00,000.00,030.9,030.1,000.0,039.3,032.6,015.8,0000.0,0017.93,0005.50,0003.80
2024-06-03 13:05:00,SystemResetWarning,0824.8,5.00,000.00,030.9,030.1,000.0,039.4,032.6,015.9,0000.0,0017.97,0005.58,0003.81
2024-06-03 13:06:00,SystemResetWarning,0824.7,5.00,000.00,030.9,030.1,000.0,039.4,032.6,016.0,0000.0,0018.21,0005.66,0003.83
2024-06-03 13:07:00,SystemResetWarning,0824.7,5.00,000.00,030.9,030.1,000.0,039.4,032.6,016.1,0000.0,0018.69,0005.55,0003.84
2024-06-03 13:08:00,SystemResetWarning,0824.8,5.00,000.00,030.9,030.1,000.0,039.4,032.6,016.1,0000.0,0020.06,0005.54,0003.84
2024-06-03 13:09:00,SystemResetWarning,0824.7,5.00,000.00,030.9,030.1,000.0,039.4,032.6,016.0,0000.0,0019.34,0005.51,0003.84
2024-06-03 13:10:00,SystemResetWarning,0824.8,5.00,000.00,030.9,030.1,000.0,039.4,032.6,015.9,0000.0,0020.24,0005.53,0003.84
2024-06-03 13:11:00,SystemResetWarning,0824.8,5.00,000.00,030.9,030.1,000.0,039.4,032.6,016.0,0000.0,0021.38,0005.54,0003.84
2024-06-03 13:12:00,SystemResetWarning,0824.9,5.00,000.00,030.9,030.2,000.0,039.4,032.6,016.0,0000.0,0020.71,0005.54,0003.84
2024-06-03 13:13:00,SystemResetWarning,0824.8,5.00,000.00,030.9,030.2,000.0,039.4,032.6,015.8,0000.0,0020.32,0005.56,0003.85
2024-06-03 13:14:00,SystemResetWarning,0824.8,5.00,000.00,030.9,030.2,000.0,039.4,032.6,015.8,0000.0,0020.52,0005.56,0003.87
2024-06-03 13:15:00,SystemResetWarning,0824.8,4.99,000.00,030.9,030.2,000.0,039.4,032.7,015.8,0000.0,0020.90,0005.57,0003.87
2024-06-03 13:16:00,SystemResetWarning,0824.8,5.00,000.00,030.9,030.2,000.0,039.4,032.7,015.7,0000.0,0020.89,0005.54,0003.88
2024-06-03 13:17:00,SystemResetWarning,0824.8,4.99,000.00,030.9,030.2,000.0,039.4,032.6,015.3,0000.0,0020.98,0005.49,0003.89
2024-06-03 13:18:00,SystemResetWarning,0824.8,5.00,000.00,031.0,030.2,000.0,039.4,032.6,015.3,0000.0,0020.83,0005.54,0003.90
2024-06-03 13:19:00,SystemResetWarning,0824.8,5.00,000.00,031.0,030.2,000.0,039.4,032.6,015.1,0000.0,0019.15,0005.50,0003.89
2024-06-03 13:20:00,SystemResetWarning,0824.8,5.01,000.00,031.0,030.2,000.0,039.4,032.6,015.2,0000.0,0018.33,0005.50,0003.90
2024-06-03 13:21:00,SystemResetWarning,0824.8,5.00,000.00,031.0,030.2,000.0,039.4,032.7,016.0,0000.0,0017.53,0005.43,0003.90
2024-06-03 13:22:00,SystemResetWarning,0824.7,5.00,000.00,031.0,030.2,000.0,039.4,032.7,016.8,0000.0,0016.53,0005.40,0003.89
2024-06-03 13:23:00,SystemResetWarning,0824.7,5.00,000.00,031.0,030.2,000.0,039.4,032.6,016.6,0000.0,0016.22,0005.40,0003.89
2024-06-03 13:24:00,SystemResetWarning,0824.7,4.99,000.00,031.0,030.2,000.0,039.4,032.7,016.4,0000.0,0016.92,0005.34,0003.88
2024-06-03 13:25:00,SystemResetWarning,0824.8,5.00,000.00,031.0,030.2,000.0,039.4,032.6,016.2,0000.0,0016.56,0005.27,0003.87
2024-06-03 13:26:00,SystemResetWarning,0824.8,5.00,000.00,031.0,030.2,000.0,039.4,032.7,016.2,0000.0,0016.34,0005.29,0003.85
2024-06-03 13:27:00,SystemResetWarning,0824.8,5.00,000.00,031.0,030.2,000.0,039.4,032.7,016.3,0000.0,0016.64,0005.33,0003.85
2024-06-03 13:28:00,SystemResetWarning,0824.8,5.00,000.00,031.0,030.2,000.0,039.4,032.7,016.0,0000.0,0016.52,0005.35,0003.85
2024-06-03 13:29:00,SystemResetWarning,0824.8,5.00,000.00,031.0,030.2,000.0,039.4,032.7,015.9,0000.0,0016.57,0005.31,0003.84
2024-06-03 13:30:00,SystemResetWarning,0824.8,5.00,000.00,031.0,030.2,000.0,039.4,032.6,015.8,0000.0,0017.30,0005.34,0003.84
2024-06-03 13:31:00,SystemResetWarning,0824.7,5.01,000.00,031.0,030.2,000.0,039.4,032.6,015.8,0000.0,0018.66,0005.33,0003.83
2024-06-03 13:32:00,SystemResetWarning,0824.7,5.00,000.00,031.0,030.2,000.0,039.4,032.7,015.8,0000.0,0019.24,0005.36,0003.83
2024-06-03 13:33:00,SystemResetWarning,0824.7,5.00,000.00,031.0,030.2,000.0,039.4,032.7,015.7,0000.0,0019.72,0005.38,0003.82
2024-06-03 13:34:00,SystemResetWarning,0824.7,5.00,000.00,031.0,030.2,000.0,039.4,032.7,015.8,0000.0,0020.30,0005.39,0003.82
2024-06-03 13:35:00,SystemResetWarning,0824.7,5.00,000.00,031.0,030.2,000.0,039.4,032.7,016.2,0000.0,0020.05,0005.45,0003.82
2024-06-03 13:36:00,SystemResetWarning,0824.8,4.99,000.00,031.0,030.2,000.0,039.4,032.7,016.6,0000.0,0020.68,0005.48,0003.83
2024-06-03 13:37:00,SystemResetWarning,0824.7,5.01,000.00,031.0,030.2,000.0,039.4,032.7,017.8,0000.0,0020.99,0005.49,0003.82
2024-06-03 13:38:00,SystemResetWarning,0824.7,5.01,000.00,031.0,030.2,000.0,039.4,032.7,016.9,0000.0,0020.98,0005.52,0003.81
2024-06-03 13:39:00,SystemResetWarning,0824.7,5.00,000.00,031.0,030.2,000.0,039.4,032.7,016.4,0000.0,0020.50,0005.54,0003.80
2024-06-03 13:40:00,SystemResetWarning,0824.7,4.99,000.00,031.0,030.2,000.0,039.4,032.7,016.3,0000.0,0020.50,0005.59,0003.80
2024-06-03 13:41:00,SystemResetWarning,0824.7,5.00,000.00,031.0,030.2,000.0,039.4,032.7,015.7,0000.0,0020.70,0005.57,0003.79
2024-06-03 13:42:00,SystemResetWarning,0824.7,5.01,000.00,031.0,030.2,000.0,039.4,032.7,015.4,0000.0,0019.78,0005.54,0003.77
2024-06-03 13:43:00,SystemResetWarning,0824.7,5.00,000.00,031.0,030.2,000.0,039.4,032.7,015.4,0000.0,0018.39,0005.47,0003.77
2024-06-03 13:44:00,SystemResetWarning,0824.7,5.00,000.00,031.0,030.3,000.0,039.4,032.7,015.9,0000.0,0018.47,0005.42,0003.77
2024-06-03 13:45:00,SystemResetWarning,0824.7,5.00,000.00,031.0,030.3,000.0,039.4,032.7,015.9,0000.0,0017.99,0005.42,0003.78
2024-06-03 13:46:00,SystemResetWarning,0824.8,4.99,000.00,031.0,030.3,000.0,039.4,032.7,016.0,0000.0,0017.82,0005.38,0003.77
2024-06-03 13:47:00,SystemResetWarning,0824.8,5.00,000.00,031.0,030.3,000.0,039.4,032.7,017.2,0000.0,0016.56,0005.32,0003.75
2024-06-03 13:48:00,SystemResetWarning,0824.7,5.00,000.00,031.0,030.3,000.0,039.4,032.7,016.9,0000.0,0016.15,0005.27,0003.74
2024-06-03 13:49:00,SystemResetWarning,0824.7,5.00,000.00,031.0,030.3,000.0,039.4,032.7,018.2,0000.0,0015.64,0005.22,0003.74
2024-06-03 13:50:00,SystemResetWarning,0824.7,5.00,000.00,031.0,030.3,000.0,039.4,032.7,018.1,0000.0,0016.32,0005.18,0003.73
2024-06-03 13:51:00,SystemResetWarning,0824.7,5.01,000.00,031.0,030.3,000.0,039.4,032.7,016.1,0000.0,0016.43,0005.14,0003.72
2024-06-03 13:52:00,SystemResetWarning,0824.7,5.01,000.00,031.0,030.3,000.0,039.4,032.7,016.9,0000.0,0016.81,0005.15,0003.72
2024-06-03 13:53:00,SystemResetWarning,0824.7,5.00,000.00,031.0,030.3,000.0,039.4,032.7,016.8,0000.0,0016.22,0005.20,0003.73
2024-06-03 13:54:00,SystemResetWarning,0824.7,4.99,000.00,031.0,030.3,000.0,039.4,032.7,016.7,0000.0,0016.52,0005.27,0003.72
2024-06-03 13:55:00,SystemResetWarning,0824.7,4.99,000.00,031.0,030.3,000.0,039.4,032.7,017.2,0000.0,0016.69,0005.31,0003.72
2024-06-03 13:56:00,SystemResetWarning,0824.7,5.01,000.00,031.0,030.3,000.0,039.4,032.7,017.7,0000.0,0016.62,0005.33,0003.72
2024-06-03 13:57:00,SystemResetWarning,0824.7,5.01,000.00,031.1,030.3,000.0,039.4,032.7,017.6,0000.0,0017.12,0005.36,0003.72
2024-06-03 13:58:00,SystemResetWarning,0824.7,5.01,000.00,031.1,030.3,000.0,039.4,032.7,017.5,0000.0,0017.12,0005.37,0003.72
2024-06-03 13:59:00,SystemResetWarning,0824.7,4.99,000.00,031.1,030.3,000.0,039.4,032.7,017.6,0000.0,0017.02,0005.36,0003.71
